SCP
0 -0 -0 0 -1 -1 -0 -0 -0 -0 -0 0 0 0 -0 -0 -0 -0 -0 -0 0 0 0 0 0 0 0 0 0 0 0 0 0 0 0 0 0 0 0 0 0 0 0
-0 -0 -0 0 -0 -0 -0 -0 -0 -0 -0 -0 -0 0 0 0 -0 0 0 0 0 0 0 0 0 0 0 0 0 0 0 0 0 0 0 0 0 0 0 0 0 0 0
-0 0 0 0 -0 -0 -0 -0 -0 -0 -0 -0 -0 0 0 0 0 0 0 0 0 0 0 0 0 0 0 0 0 0 0 0 0 0 0 0 0 0 0 0 0 0 0
-0 0 -0 0 -0 -0 -0 -0 -0 -0 -0 -0 -0 -0 0 0 0 0 0 0 0 0 0 0 0 0 0 0 0 0 0 0 0 0 0 0 0 0 0 0 0 0 0
-0 0 -0 0 0 -0 0 -0 -0 -0 -0 -0 -0 0 0 0 0 0 0 0 0 0 0 0 0 0 0 0 0 0 0 0 0 0 0 0 0 0 0 0 0 0 0
0 0 -0 -0 0 -0 0 -0 -0 -0 -0 -0 -0 0 0 0 0 0 0 0 0 0 0 0 0 0 0 0 0 0 0 0 0 0 0 0 0 0 0 0 0 0 0
0 0 -0 0 0 -0 -0 -0 -0 -0 -0 -0 -0 -0 0 0 0 0 0 0 0 0 0 0 0 0 0 0 0 0 0 0 0 0 0 0 0 0 0 0 0 0 0
0 0 -0 -0 0 -0 -0 0 -0 -0 -0 -0 -0 -0 0 0 0 1 0 0 0 0 0 0 0 0 0 0 0 0 0 0 0 0 0 0 0 0 0 0 0 0 0
0 0 -0 -0 -0 -0 -0 -0 -0 -0 -0 -0 -0 -0 0 0 1 1 1 0 0 0 0 0 0 0 0 0 0 0 0 0 0 0 0 0 0 0 0 0 0 0 0
0 0 0 -0 -0 -0 0 0 0 -0 -0 -0 -0 0 0 0 1 1 1 0 0 0 0 0 0 0 0 0 0 0 0 0 0 0 0 0 0 0 0 0 0 0 0
0 0 0 0 0 0 0 0 0 -0 -0 -0 0 0 0 1 1 0 0 0 1 1 1 0 0 0 0 0 0 0 0 0 0 0 0 0 0 0 0 0 0 0 0
0 0 0 0 0 0 0 0 0 0 0 0 0 0 0 0 0 0 1 0 0 1 1 1 1 1 0 0 0 0 0 0 0 0 0 0 0 0 0 0 0 0 0
0 0 0 0 0 0 0 0 0 0 0 0 0 0 0 0 0 0 0 0 0 0 0 1 1 0 0 0 0 0 0 0 0 0 0 0 0 0 0 0 0 0 0
0 -0 0 0 0 0 0 0 0 0 0 0 0 0 0 0 0 0 0 0 0 0 0 0 0 0 0 0 0 0 0 0 0 0 0 0 0 0 0 0 0 0 0
0 0 0 0 0 0 0 0 0 0 0 0 0 0 0 0 0 0 0 0 0 0 0 0 0 0 0 0 0 0 0 0 0 0 0 0 0 0 0 0 0 0 -0
0 -0 0 0 0 0 0 0 0 0 0 0 0 0 0 0 0 0 0 0 0 0 0 0 0 0 0 0 0 0 0 0 0 0 0 0 0 0 0 0 0 0 0
0 0 0 0 0 0 0 0 0 0 0 0 0 0 0 0 0 0 0 0 0 0 0 0 0 0 0 0 0 0 0 0 0 0 0 0 0 0 0 0 0 0 0
0 0 0 1 0 0 0 0 0 0 0 0 0 0 0 0 0 0 0 0 0 0 0 0 0 0 0 0 0 0 0 0 0 0 0 0 0 0 0 0 0 0 0
0 0 0 0 1 0 0 0 0 0 0 0 0 0 0 0 0 0 0 0 0 0 0 0 0 0 0 0 0 0 0 0 0 0 0 0 0 0 0 0 0 0 0
0 0 0 0 1 1 0 0 0 0 0 0 0 0 0 0 0 0 0 0 0 0 0 0 0 0 0 0 0 0 0 0 0 0 0 0 0 0 0 0 0 0 0
0 0 0 0 0 1 1 0 0 0 0 0 0 0 0 0 0 0 0 0 0 0 0 0 0 0 0 0 0 0 0 0 0 0 0 0 0 0 0 0 0 0 0
0 0 0 0 0 0 1 1 1 1 0 0 0 0 0 0 0 0 0 0 0 0 0 0 0 0 0 0 0 0 0 0 0 0 0 0 0 0 0 0 0 0 0
0 0 0 0 0 0 0 1 0 0 0 0 0 1 1 0 1 0 0 0 0 0 0 0 0 0 0 0 0 0 0 0 0 0 0 0 0 0 0 0 0 0 0
0 0 0 0 0 0 0 0 1 1 1 1 0 0 1 1 1 1 0 0 0 0 0 0 0 0 0 0 0 0 0 0 0 0 0 0 0 0 0 0 0 0 0
-0 0 0 0 0 0 0 0 1 1 1 0 0 0 0 0 1 1 1 0 0 0 0 0 0 0 0 0 0 0 0 0 0 0 0 0 0 0 0 0 0 0 0
0 -0 0 0 0 0 0 0 1 1 1 0 0 0 0 1 1 1 1 1 1 1 0 0 0 0 0 0 0 0 0 0 0 0 0 0 0 0 0 0 0 0 0
Wind_Speed_500mb
60 61 60 59 50 48 45 43 42 41 37 32 28 29 31 33 33 31 31 28 25 23 21 20 18 16 14 12 9 5 2 1 2 2 2 2 2 2 3 2 4 7 6
71 70 66 65 56 54 52 51 48 45 42 38 37 39 39 36 32 29 27 26 24 21 20 18 17 16 15 12 9 6 3 2 2 3 3 2 3 2 2 2 3 5 5
71 74 71 69 63 59 57 54 52 49 47 45 45 43 39 36 32 28 25 23 22 20 18 16 14 14 13 12 9 6 4 4 4 6 8 7 6 4 4 6 3 5 4
74 75 75 74 68 65 62 58 54 51 51 48 45 40 37 32 28 25 23 20 17 16 15 14 12 11 10 9 8 5 4 7 8 7 9 10 7 4 5 8 8 1 3
79 77 76 75 72 67 65 61 55 52 50 47 42 38 33 29 26 23 21 19 17 14 12 11 10 9 7 7 6 4 3 4 5 3 7 9 8 8 9 9 12 7 5
83 81 78 76 72 68 68 63 58 52 49 45 40 36 31 28 25 23 20 18 15 13 10 9 8 8 6 5 5 4 0 5 6 4 3 4 3 4 7 9 11 12 3
84 83 81 77 73 68 68 64 58 54 49 44 38 34 30 27 24 22 20 18 16 14 13 11 8 7 5 5 3 3 3 9 10 9 8 7 8 6 3 4 7 11 3
85 85 83 79 73 67 66 64 59 55 49 43 39 34 30 28 26 24 22 21 19 18 16 15 12 10 9 8 5 5 7 13 12 16 16 13 10 12 9 9 8 9 9
86 86 82 80 75 68 64 63 60 55 51 43 39 35 32 29 28 26 25 24 23 23 22 21 19 17 16 14 10 9 10 15 14 16 17 18 16 12 13 12 12 10 9
90 86 83 80 76 73 67 63 59 55 52 46 41 38 34 31 30 29 28 28 27 28 28 27 26 24 23 21 18 15 14 18 19 16 16 18 21 14 14 15 16 16 13
91 88 84 80 78 72 67 61 59 56 52 49 45 41 39 38 34 33 31 31 31 34 33 32 32 31 30 27 26 22 21 22 23 21 19 18 19 15 13 17 17 17 21
90 92 87 82 78 72 68 64 61 57 55 54 49 45 46 41 37 34 33 34 34 37 38 37 38 38 36 34 32 27 27 26 26 26 24 20 17 16 15 17 19 22 25
85 88 87 83 78 74 71 66 63 59 57 56 51 48 45 43 41 41 37 36 36 38 41 40 42 42 39 36 37 31 31 31 31 27 26 24 22 21 19 24 25 21 28
75 83 84 85 79 75 71 68 62 60 57 56 53 50 47 45 46 45 41 36 34 37 38 40 42 43 41 39 37 35 34 35 35 32 30 29 27 27 26 27 31 29 25
51 69 81 83 82 79 75 70 66 62 59 56 55 53 51 47 46 44 42 38 32 32 32 35 38 39 39 40 34 30 29 32 36 36 35 37 35 36 36 31 30 26 27
29 34 55 75 83 83 80 77 76 70 66 61 59 55 53 50 46 45 40 36 30 27 27 30 31 32 32 34 29 24 22 24 28 28 30 34 38 34 37 43 38 28 32
36 31 30 51 68 83 85 87 84 75 71 69 64 59 58 53 49 42 39 35 26 27 29 30 30 31 30 31 26 23 20 18 18 22 22 30 33 36 43 39 40 29 34
37 35 41 38 52 83 99 94 89 78 74 77 66 58 60 58 50 45 40 33 27 29 32 33 31 30 30 29 26 22 22 21 21 26 28 29 35 35 31 36 36 34 34
28 34 33 45 49 49 82 92 89 85 83 73 68 62 62 55 51 46 41 34 29 31 35 35 32 32 32 29 27 21 20 23 28 31 33 32 38 38 35 34 42 43 44
25 30 36 43 50 45 52 79 86 89 81 66 70 71 56 54 52 48 44 39 31 34 36 34 32 35 32 25 28 26 28 30 32 34 37 41 39 38 40 38 39 42 47
28 25 30 36 42 49 49 56 77 91 90 79 83 70 58 58 56 52 48 42 36 36 31 31 31 34 31 28 29 26 30 28 30 30 32 38 37 41 42 36 31 32 30
44 37 30 28 39 50 57 62 61 73 86 83 81 71 65 61 56 57 50 45 40 36 30 29 31 32 32 32 30 27 22 23 28 25 31 35 36 34 30 29 32 31 30
48 48 47 34 34 38 55 66 68 65 78 92 91 75 78 71 63 61 49 47 41 34 29 25 28 34 32 32 28 28 10 11 13 19 16 17 23 27 29 29 30 30 34
61 58 58 52 42 41 42 62 76 84 79 83 91 82 83 73 66 57 52 51 42 34 28 25 29 34 31 34 33 35 35 36 28 17 18 19 27 29 28 29 25 25 26
52 52 58 62 58 50 45 50 68 79 82 86 101 94 89 75 65 60 57 51 42 36 27 29 33 34 33 37 35 32 33 33 33 35 35 24 22 25 22 22 22 21 18
62 63 56 59 65 63 56 54 62 76 85 80 88 99 97 72 61 62 59 51 41 38 33 31 31 30 31 30 32 31 32 34 37 32 31 27 27 19 16 16 18 18 17
Wind_Direction_500mb
180 170 166 163 167 166 163 161 161 164 167 170 168 157 147 140 137 133 128 125 122 119 119 118 115 112 106 103 106 115 168 202 223 226 278 314 58 113 99 64 75 60 60
170 170 167 160 164 163 157 155 156 161 167 169 164 154 146 142 138 137 133 129 126 125 120 113 109 106 102 98 98 100 106 116 141 130 117 83 78 84 291 236 39 36 29
175 170 167 161 161 162 157 154 155 158 161 162 159 156 151 148 145 145 142 138 135 133 127 119 113 110 111 111 108 109 132 121 107 105 101 104 97 85 44 345 311 22 39
175 172 169 164 164 162 160 157 158 161 162 165 163 161 158 156 157 155 153 150 150 148 143 135 129 120 113 107 104 112 105 109 112 110 111 109 90 70 20 24 36 8 113
176 175 172 169 166 166 163 163 165 168 169 170 170 169 167 168 168 169 169 168 169 168 160 152 144 136 130 127 118 85 54 116 131 134 138 138 93 71 56 38 41 34 201
177 176 174 172 172 171 169 168 171 176 178 178 177 178 178 182 182 184 186 187 189 188 190 185 178 164 152 166 136 103 333 283 200 210 199 174 168 104 58 47 34 32 188
179 179 177 175 174 178 175 173 176 182 186 186 187 190 190 194 197 199 203 207 211 216 219 220 216 210 202 213 161 166 251 271 253 237 250 274 246 245 292 330 359 30 9
180 181 181 180 178 182 183 180 183 188 192 194 195 198 203 205 210 214 218 222 230 235 241 246 246 245 248 245 229 212 249 268 271 260 263 272 258 254 255 279 323 342 356
186 184 184 184 184 187 190 188 189 192 197 202 204 207 213 218 222 226 231 236 242 247 253 255 257 257 257 260 254 240 251 268 267 266 277 277 260 259 246 260 286 308 341
189 190 188 189 190 193 194 196 196 197 202 209 214 216 220 227 231 236 240 245 250 253 256 259 262 261 261 262 263 260 260 266 270 266 282 281 260 251 236 240 260 296 306
193 194 193 194 195 198 199 200 203 205 207 214 219 224 226 231 237 243 248 251 256 260 260 263 263 261 261 262 264 266 269 270 269 270 281 275 257 239 245 251 268 288 306
199 198 197 199 200 201 204 205 207 210 213 217 221 226 230 235 243 252 252 255 259 264 265 267 266 262 261 264 264 264 270 270 270 267 277 262 237 243 259 269 278 283 295
206 206 204 204 205 207 209 211 211 214 218 223 225 231 236 243 246 249 256 258 265 270 272 273 271 267 268 266 268 267 269 269 269 265 265 251 242 256 269 272 265 266 276
220 215 210 209 210 213 217 217 219 221 225 228 231 234 239 246 251 254 259 266 269 273 276 277 274 270 267 268 266 270 271 270 266 264 260 247 248 257 263 271 258 258 254
246 235 229 218 214 218 222 222 225 228 231 236 239 240 244 250 256 261 264 267 270 271 280 283 280 276 273 269 266 268 270 271 261 256 257 250 244 262 267 266 265 282 266
269 269 251 245 226 221 224 228 229 230 233 238 241 246 253 255 258 262 264 268 267 274 277 278 278 275 269 264 259 255 263 272 262 250 259 249 243 258 275 276 257 290 268
290 284 292 252 244 238 231 233 236 237 239 240 242 248 255 257 259 262 264 263 270 271 270 271 271 272 269 262 253 245 260 275 251 248 255 247 255 265 283 270 268 270 257
283 277 290 297 261 244 240 236 236 241 246 246 241 246 254 256 258 258 262 265 273 273 273 273 269 271 271 262 248 243 249 262 260 250 254 257 267 275 276 274 278 276 272
281 277 282 286 289 265 245 243 242 239 241 250 249 249 246 253 255 257 265 269 274 276 275 271 267 266 265 263 247 240 242 252 256 253 250 257 265 271 276 271 277 277 267
295 276 265 276 280 282 261 247 245 240 243 242 242 241 245 253 252 256 265 273 276 281 279 272 270 261 262 264 249 243 251 255 256 260 261 263 270 272 277 282 276 266 260
299 286 269 261 277 275 278 264 251 243 237 234 234 240 241 249 250 254 263 272 279 285 279 269 263 255 257 259 253 259 265 269 265 270 272 272 270 280 280 282 278 278 265
301 292 280 265 257 267 277 275 265 251 240 234 237 237 249 249 252 255 261 271 280 276 269 264 261 252 252 253 249 259 276 281 276 280 282 278 283 282 283 281 279 273 262
305 294 286 272 260 266 260 275 265 252 245 238 241 239 242 248 254 252 259 267 272 260 262 261 258 253 250 253 247 236 250 241 299 292 283 274 282 292 291 280 273 270 264
310 299 287 280 267 264 256 256 267 261 257 251 241 252 247 250 251 253 259 265 259 251 257 257 250 248 243 245 239 239 246 258 277 283 262 275 283 295 290 278 274 271 258
316 307 288 280 272 261 264 255 251 258 255 252 250 257 251 249 252 253 255 257 248 246 250 249 245 242 242 237 233 240 243 250 257 256 273 277 280 292 292 285 278 275 262
319 315 302 282 270 266 261 265 249 249 250 245 244 252 251 249 249 248 255 254 240 239 242 244 245 235 235 233 235 240 244 246 257 264 262 276 287 290 295 290 279 267 256
Wind_Speed_850mb
60 61 60 59 50 48 45 43 42 41 37 32 28 29 31 33 33 31 31 28 25 23 21 20 18 16 14 12 9 5 2 1 2 2 2 2 2 2 3 2 4 7 6
71 70 66 65 56 54 52 51 48 45 42 38 37 39 39 36 32 29 27 26 24 21 20 18 17 16 15 12 9 6 3 2 2 3 3 2 3 2 2 2 3 5 5
71 74 71 69 63 59 57 54 52 49 47 45 45 43 39 36 32 28 25 23 22 20 18 16 14 14 13 12 9 6 4 4 4 6 8 7 6 4 4 6 3 5 4
74 75 75 74 68 65 62 58 54 51 51 48 45 40 37 32 28 25 23 20 17 16 15 14 12 11 10 9 8 5 4 7 8 7 9 10 7 4 5 8 8 1 3
79 77 76 75 72 67 65 61 55 52 50 47 42 38 33 29 26 23 21 19 17 14 12 11 10 9 7 7 6 4 3 4 5 3 7 9 8 8 9 9 12 7 5
83 81 78 76 72 68 68 63 58 52 49 45 40 36 31 28 25 23 20 18 15 13 10 9 8 8 6 5 5 4 0 5 6 4 3 4 3 4 7 9 11 12 3
84 83 81 77 73 68 68 64 58 54 49 44 38 34 30 27 24 22 20 18 16 14 13 11 8 7 5 5 3 3 3 9 10 9 8 7 8 6 3 4 7 11 3
85 85 83 79 73 67 66 64 59 55 49 43 39 34 30 28 26 24 22 21 19 18 16 15 12 10 9 8 5 5 7 13 12 16 16 13 10 12 9 9 8 9 9
86 86 82 80 75 68 64 63 60 55 51 43 39 35 32 29 28 26 25 24 23 23 22 21 19 17 16 14 10 9 10 15 14 16 17 18 16 12 13 12 12 10 9
90 86 83 80 76 73 67 63 59 55 52 46 41 38 34 31 30 29 28 28 27 28 28 27 26 24 23 21 18 15 14 18 19 16 16 18 21 14 14 15 16 16 13
91 88 84 80 78 72 67 61 59 56 52 49 45 41 39 38 34 33 31 31 31 34 33 32 32 31 30 27 26 22 21 22 23 21 19 18 19 15 13 17 17 17 21
90 92 87 82 78 72 68 64 61 57 55 54 49 45 46 41 37 34 33 34 34 37 38 37 38 38 36 34 32 27 27 26 26 26 24 20 17 16 15 17 19 22 25
85 88 87 83 78 74 71 66 63 59 57 56 51 48 45 43 41 41 37 36 36 38 41 40 42 42 39 36 37 31 31 31 31 27 26 24 22 21 19 24 25 21 28
75 83 84 85 79 75 71 68 62 60 57 56 53 50 47 45 46 45 41 36 34 37 38 40 42 43 41 39 37 35 34 35 35 32 30 29 27 27 26 27 31 29 25
51 69 81 83 82 79 75 70 66 62 59 56 55 53 51 47 46 44 42 38 32 32 32 35 38 39 39 40 34 30 29 32 36 36 35 37 35 36 36 31 30 26 27
29 34 55 75 83 83 80 77 76 70 66 61 59 55 53 50 46 45 40 36 30 27 27 30 31 32 32 34 29 24 22 24 28 28 30 34 38 34 37 43 38 28 32
36 31 30 51 68 83 85 87 84 75 71 69 64 59 58 53 49 42 39 35 26 27 29 30 30 31 30 31 26 23 20 18 18 22 22 30 33 36 43 39 40 29 34
37 35 41 38 52 83 99 94 89 78 74 77 66 58 60 58 50 45 40 33 27 29 32 33 31 30 30 29 26 22 22 21 21 26 28 29 35 35 31 36 36 34 34
28 34 33 45 49 49 82 92 89 85 83 73 68 62 62 55 51 46 41 34 29 31 35 35 32 32 32 29 27 21 20 23 28 31 33 32 38 38 35 34 42 43 44
25 30 36 43 50 45 52 79 86 89 81 66 70 71 56 54 52 48 44 39 31 34 36 34 32 35 32 25 28 26 28 30 32 34 37 41 39 38 40 38 39 42 47
28 25 30 36 42 49 49 56 77 91 90 79 83 70 58 58 56 52 48 42 36 36 31 31 31 34 31 28 29 26 30 28 30 30 32 38 37 41 42 36 31 32 30
44 37 30 28 39 50 57 62 61 73 86 83 81 71 65 61 56 57 50 45 40 36 30 29 31 32 32 32 30 27 22 23 28 25 31 35 36 34 30 29 32 31 30
48 48 47 34 34 38 55 66 68 65 78 92 91 75 78 71 63 61 49 47 41 34 29 25 28 34 32 32 28 28 10 11 13 19 16 17 23 27 29 29 30 30 34
61 58 58 52 42 41 42 62 76 84 79 83 91 82 83 73 66 57 52 51 42 34 28 25 29 34 31 34 33 35 35 36 28 17 18 19 27 29 28 29 25 25 26
52 52 58 62 58 50 45 50 68 79 82 86 101 94 89 75 65 60 57 51 42 36 27 29 33 34 33 37 35 32 33 33 33 35 35 24 22 25 22 22 22 21 18
62 63 56 59 65 63 56 54 62 76 85 80 88 99 97 72 61 62 59 51 41 38 33 31 31 30 31 30 32 31 32 34 37 32 31 27 27 19 16 16 18 18 17
Wind_Direction_850mb
180 170 166 163 167 166 163 161 161 164 167 170 168 157 147 140 137 133 128 125 122 119 119 118 115 112 106 103 106 115 168 202 223 226 278 314 58 113 99 64 75 60 60
170 170 167 160 164 163 157 155 156 161 167 169 164 154 146 142 138 137 133 129 126 125 120 113 109 106 102 98 98 100 106 116 141 130 117 83 78 84 291 236 39 36 29
175 170 167 161 161 162 157 154 155 158 161 162 159 156 151 148 145 145 142 138 135 133 127 119 113 110 111 111 108 109 132 121 107 105 101 104 97 85 44 345 311 22 39
175 172 169 164 164 162 160 157 158 161 162 165 163 161 158 156 157 155 153 150 150 148 143 135 129 120 113 107 104 112 105 109 112 110 111 109 90 70 20 24 36 8 113
176 175 172 169 166 166 163 163 165 168 169 170 170 169 167 168 168 169 169 168 169 168 160 152 144 136 130 127 118 85 54 116 131 134 138 138 93 71 56 38 41 34 201
177 176 174 172 172 171 169 168 171 176 178 178 177 178 178 182 182 184 186 187 189 188 190 185 178 164 152 166 136 103 333 283 200 210 199 174 168 104 58 47 34 32 188
179 179 177 175 174 178 175 173 176 182 186 186 187 190 190 194 197 199 203 207 211 216 219 220 216 210 202 213 161 166 251 271 253 237 250 274 246 245 292 330 359 30 9
180 181 181 180 178 182 183 180 183 188 192 194 195 198 203 205 210 214 218 222 230 235 241 246 246 245 248 245 229 212 249 268 271 260 263 272 258 254 255 279 323 342 356
186 184 184 184 184 187 190 188 189 192 197 202 204 207 213 218 222 226 231 236 242 247 253 255 257 257 257 260 254 240 251 268 267 266 277 277 260 259 246 260 286 308 341
189 190 188 189 190 193 194 196 196 197 202 209 214 216 220 227 231 236 240 245 250 253 256 259 262 261 261 262 263 260 260 266 270 266 282 281 260 251 236 240 260 296 306
193 194 193 194 195 198 199 200 203 205 207 214 219 224 226 231 237 243 248 251 256 260 260 263 263 261 261 262 264 266 269 270 269 270 281 275 257 239 245 251 268 288 306
199 198 197 199 200 201 204 205 207 210 213 217 221 226 230 235 243 252 252 255 259 264 265 267 266 262 261 264 264 264 270 270 270 267 277 262 237 243 259 269 278 283 295
206 206 204 204 205 207 209 211 211 214 218 223 225 231 236 243 246 249 256 258 265 270 272 273 271 267 268 266 268 267 269 269 269 265 265 251 242 256 269 272 265 266 276
220 215 210 209 210 213 217 217 219 221 225 228 231 234 239 246 251 254 259 266 269 273 276 277 274 270 267 268 266 270 271 270 266 264 260 247 248 257 263 271 258 258 254
246 235 229 218 214 218 222 222 225 228 231 236 239 240 244 250 256 261 264 267 270 271 280 283 280 276 273 269 266 268 270 271 261 256 257 250 244 262 267 266 265 282 266
269 269 251 245 226 221 224 228 229 230 233 238 241 246 253 255 258 262 264 268 267 274 277 278 278 275 269 264 259 255 263 272 262 250 259 249 243 258 275 276 257 290 268
290 284 292 252 244 238 231 233 236 237 239 240 242 248 255 257 259 262 264 263 270 271 270 271 271 272 269 262 253 245 260 275 251 248 255 247 255 265 283 270 268 270 257
283 277 290 297 261 244 240 236 236 241 246 246 241 246 254 256 258 258 262 265 273 273 273 273 269 271 271 262 248 243 249 262 260 250 254 257 267 275 276 274 278 276 272
281 277 282 286 289 265 245 243 242 239 241 250 249 249 246 253 255 257 265 269 274 276 275 271 267 266 265 263 247 240 242 252 256 253 250 257 265 271 276 271 277 277 267
295 276 265 276 280 282 261 247 245 240 243 242 242 241 245 253 252 256 265 273 276 281 279 272 270 261 262 264 249 243 251 255 256 260 261 263 270 272 277 282 276 266 260
299 286 269 261 277 275 278 264 251 243 237 234 234 240 241 249 250 254 263 272 279 285 279 269 263 255 257 259 253 259 265 269 265 270 272 272 270 280 280 282 278 278 265
301 292 280 265 257 267 277 275 265 251 240 234 237 237 249 249 252 255 261 271 280 276 269 264 261 252 252 253 249 259 276 281 276 280 282 278 283 282 283 281 279 273 262
305 294 286 272 260 266 260 275 265 252 245 238 241 239 242 248 254 252 259 267 272 260 262 261 258 253 250 253 247 236 250 241 299 292 283 274 282 292 291 280 273 270 264
310 299 287 280 267 264 256 256 267 261 257 251 241 252 247 250 251 253 259 265 259 251 257 257 250 248 243 245 239 239 246 258 277 283 262 275 283 295 290 278 274 271 258
316 307 288 280 272 261 264 255 251 258 255 252 250 257 251 249 252 253 255 257 248 246 250 249 245 242 242 237 233 240 243 250 257 256 273 277 280 292 292 285 278 275 262
319 315 302 282 270 266 261 265 249 249 250 245 244 252 251 249 249 248 255 254 240 239 242 244 245 235 235 233 235 240 244 246 257 264 262 276 287 290 295 290 279 267 256